contact:dominique.lefevre@mio.osupytheas.fr, maurice.libes@osupytheas.fr, didier.mallarino@osupytheas.fr
Project:EMSO http://www.emso-fr.org/EMSO-France
Depth: 2436.0 m
Title:EMSO Ligure Ouest : Data MII capteur AQUADOPP
Date,Latitude,Longitude,X_East,Y_North,Z_Up,Amplitude_X,Amplitude_Y,Amplitude_Z,Batterie,SoundSpeed,Heading,Pitch,Roll,Pressure,TIS,Speed,Direction
, degrees North, degrees East, m.s-1, m.s-1,m.s-1, 1, 1, 1, Volt, m.s-1, degree, degree, degree, dbar, degree_C, m.s-1, degree
2019-08-16T00:00:42,42.805,6.029,0.009,-0.012,-0.026,102.0,104.0,97.0,13.4,1505.3,327.7,-0.7,1.8,2470.116,13.33,0.015,143.1
2019-08-16T00:03:43,42.805,6.029,0.036,0.008,-0.003,100.0,104.0,97.0,13.4,1505.3,327.0,-0.7,1.8,2470.106,13.33,0.036,77.5
2019-08-16T00:06:44,42.805,6.029,0.019,0.015,-0.001,101.0,105.0,98.0,13.4,1505.3,325.9,-0.8,1.8,2470.116,13.33,0.024,51.7
2019-08-16T00:09:45,42.805,6.029,0.037,0.0,-0.011,101.0,105.0,100.0,13.3,1505.3,324.0,-0.7,1.8,2470.133,13.33,0.037,90.0
2019-08-16T00:12:46,42.805,6.029,-0.016,0.016,-0.015,100.0,105.0,98.0,13.3,1505.3,328.5,-0.7,1.8,2470.075,13.33,0.022,315.0
2019-08-16T00:15:47,42.805,6.029,0.005,0.002,-0.024,101.0,105.0,98.0,13.4,1505.4,323.8,-0.8,1.8,2470.125,13.34,0.005,68.2
2019-08-16T00:18:48,42.805,6.029,-0.002,0.016,0.009,101.0,106.0,97.0,13.4,1505.4,323.2,-0.7,1.8,2470.071,13.34,0.016,352.9
2019-08-16T00:21:49,42.805,6.029,0.013,0.014,0.001,101.0,105.0,99.0,13.3,1505.4,327.4,-0.7,1.8,2470.05,13.34,0.019,42.9
2019-08-16T00:24:50,42.805,6.029,0.048,-0.009,-0.007,102.0,106.0,98.0,13.4,1505.4,325.7,-0.7,1.8,2470.051,13.34,0.048,100.6
2019-08-16T00:27:51,42.805,6.029,0.006,0.003,0.0,101.0,106.0,100.0,13.4,1505.4,326.9,-0.7,1.8,2470.092,13.34,0.006,63.4
2019-08-16T00:30:52,42.805,6.029,-0.013,-0.005,-0.012,101.0,105.0,98.0,13.4,1505.4,326.3,-0.7,1.9,2470.044,13.34,0.013,249.0
2019-08-16T00:33:53,42.805,6.029,0.02,-0.013,0.019,102.0,106.0,99.0,13.3,1505.4,327.6,-0.7,1.8,2470.099,13.34,0.023,123.0
2019-08-16T00:36:54,42.805,6.029,0.011,-0.011,0.016,102.0,106.0,97.0,13.4,1505.4,324.8,-0.7,1.8,2470.096,13.34,0.015,135.0
2019-08-16T00:39:55,42.805,6.029,-0.045,-0.002,-0.06,102.0,105.0,98.0,13.4,1505.4,326.6,-0.7,1.9,2470.099,13.34,0.045,267.5
2019-08-16T00:42:56,42.805,6.029,-0.089,-0.007,-0.109,102.0,104.0,99.0,13.4,1505.4,324.8,-0.7,1.8,2470.035,13.34,0.089,265.5
2019-08-16T00:45:57,42.805,6.029,-0.049,-0.027,-0.1,102.0,104.0,100.0,13.4,1505.4,326.3,-0.8,1.8,2470.038,13.34,0.055,241.1
2019-08-16T00:48:58,42.805,6.029,-0.026,0.001,-0.039,101.0,106.0,99.0,13.4,1505.4,325.2,-0.7,1.9,2470.087,13.34,0.026,272.2
2019-08-16T00:51:59,42.805,6.029,-0.039,-0.023,-0.062,103.0,105.0,99.0,13.4,1505.4,323.9,-0.7,1.8,2470.031,13.34,0.045,239.5
2019-08-16T00:55:00,42.805,6.029,-0.025,0.008,-0.01,104.0,105.0,98.0,13.4,1505.4,327.9,-0.7,1.8,2470.049,13.34,0.026,287.7
2019-08-16T00:58:01,42.805,6.029,-0.056,0.011,-0.07,103.0,104.0,99.0,13.4,1505.4,327.3,-0.7,1.9,2470.038,13.34,0.057,281.1
2019-08-16T01:01:02,42.805,6.029,0.021,-0.004,-0.006,102.0,105.0,98.0,13.3,1505.4,326.7,-0.7,1.8,2470.053,13.34,0.021,100.8
2019-08-16T01:04:03,42.805,6.029,0.012,-0.008,-0.003,102.0,104.0,98.0,13.3,1505.3,322.8,-0.7,1.8,2470.026,13.33,0.014,123.7
2019-08-16T01:07:04,42.805,6.029,0.005,0.002,0.028,102.0,105.0,98.0,13.4,1505.3,324.7,-0.7,1.8,2470.039,13.33,0.005,68.2
2019-08-16T01:10:05,42.805,6.029,0.007,-0.004,-0.031,102.0,104.0,99.0,13.4,1505.3,328.2,-0.7,1.8,2470.062,13.33,0.008,119.7
2019-08-16T01:13:06,42.805,6.029,0.005,-0.006,-0.003,102.0,105.0,99.0,13.4,1505.3,325.4,-0.8,1.8,2470.046,13.33,0.007,140.2
2019-08-16T01:16:07,42.805,6.029,0.042,0.008,0.014,102.0,104.0,98.0,13.4,1505.3,326.8,-0.7,1.8,2470.061,13.33,0.042,79.2
2019-08-16T01:19:08,42.805,6.029,-0.023,-0.008,-0.077,103.0,103.0,99.0,13.3,1505.3,324.6,-0.7,1.8,2469.998,13.33,0.024,250.8
2019-08-16T01:22:09,42.805,6.029,0.006,-0.003,-0.033,101.0,105.0,98.0,13.4,1505.3,326.9,-0.7,1.9,2470.041,13.33,0.006,116.6
2019-08-16T01:25:10,42.805,6.029,-0.046,0.01,-0.04,102.0,106.0,99.0,13.4,1505.3,324.8,-0.6,1.8,2470.042,13.33,0.047,282.3
2019-08-16T01:28:11,42.805,6.029,-0.054,-0.004,-0.061,104.0,105.0,102.0,13.4,1505.3,324.2,-0.7,1.8,2470.049,13.33,0.054,265.8
2019-08-16T01:31:12,42.805,6.029,-0.058,0.003,-0.102,101.0,106.0,97.0,13.4,1505.3,325.7,-0.7,1.8,2470.095,13.33,0.058,273.0
2019-08-16T01:34:13,42.805,6.029,-0.035,-0.006,-0.035,101.0,104.0,99.0,13.3,1505.3,325.6,-0.7,1.9,2470.045,13.33,0.035,260.3
2019-08-16T01:37:14,42.805,6.029,-0.071,-0.005,-0.083,103.0,105.0,99.0,13.4,1505.3,325.8,-0.7,1.8,2470.034,13.33,0.071,266.0
2019-08-16T01:40:15,42.805,6.029,-0.038,-0.035,-0.063,101.0,104.0,99.0,13.4,1505.3,328.5,-0.7,1.9,2470.011,13.33,0.051,227.4
2019-08-16T01:43:16,42.805,6.029,-0.082,-0.021,-0.103,101.0,104.0,98.0,13.3,1505.3,326.9,-0.7,1.8,2470.044,13.33,0.084,255.6
2019-08-16T01:46:17,42.805,6.029,-0.026,0.004,-0.051,102.0,104.0,97.0,13.4,1505.3,325.8,-0.7,1.9,2470.017,13.33,0.026,278.7
2019-08-16T01:49:18,42.805,6.029,-0.044,-0.026,-0.06,103.0,103.0,99.0,13.3,1505.3,327.3,-0.7,1.8,2470.017,13.33,0.051,239.4
2019-08-16T01:52:19,42.805,6.029,0.0,0.0,-0.033,102.0,105.0,99.0,13.3,1505.3,327.0,-0.7,1.8,2470.034,13.33,0.0,0.0
2019-08-16T01:55:20,42.805,6.029,-0.003,-0.011,-0.041,101.0,104.0,100.0,13.4,1505.3,324.8,-0.7,1.8,2470.024,13.33,0.011,195.3
2019-08-16T01:58:21,42.805,6.029,-0.032,-0.018,-0.033,102.0,104.0,98.0,13.4,1505.3,323.1,-0.7,1.8,2470.05,13.33,0.036,240.6
2019-08-16T02:01:22,42.805,6.029,-0.029,-0.01,-0.029,100.0,102.0,100.0,13.3,1505.3,326.5,-0.7,1.9,2470.028,13.33,0.03,251.0
2019-08-16T02:04:23,42.805,6.029,-0.018,0.007,-0.013,102.0,104.0,99.0,13.4,1505.3,324.6,-0.7,1.8,2470.054,13.33,0.019,291.2
2019-08-16T02:07:24,42.805,6.029,-0.022,-0.024,-0.06,101.0,103.0,98.0,13.4,1505.3,326.1,-0.7,1.8,2470.052,13.33,0.032,222.5
2019-08-16T02:10:25,42.805,6.029,-0.029,0.006,-0.065,103.0,102.0,99.0,13.3,1505.3,323.4,-0.7,1.8,2470.042,13.33,0.029,281.7
2019-08-16T02:13:26,42.805,6.029,0.003,-0.001,-0.011,102.0,104.0,99.0,13.4,1505.3,324.0,-0.7,1.8,2470.016,13.33,0.003,108.4
2019-08-16T02:16:27,42.805,6.029,-0.029,0.008,-0.036,103.0,104.0,98.0,13.4,1505.3,325.1,-0.7,1.8,2470.077,13.33,0.03,285.4
2019-08-16T02:19:28,42.805,6.029,-0.027,-0.002,0.01,101.0,104.0,99.0,13.3,1505.3,328.1,-0.7,1.8,2470.033,13.33,0.027,265.8
2019-08-16T02:22:29,42.805,6.029,-0.025,0.007,-0.041,101.0,102.0,99.0,13.3,1505.3,327.9,-0.7,1.8,2470.014,13.33,0.025,285.6
2019-08-16T02:25:30,42.805,6.029,-0.045,-0.019,-0.078,102.0,102.0,99.0,13.3,1505.3,328.1,-0.7,1.8,2469.996,13.33,0.048,247.1
2019-08-16T02:28:31,42.805,6.029,-0.051,-0.018,-0.067,101.0,103.0,99.0,13.4,1505.3,325.7,-0.7,1.8,2469.997,13.33,0.054,250.6
2019-08-16T02:31:32,42.805,6.029,-0.033,0.018,-0.03,103.0,103.0,98.0,13.4,1505.3,325.1,-0.7,1.8,2470.004,13.33,0.037,298.6
2019-08-16T02:34:33,42.805,6.029,-0.029,-0.003,-0.032,103.0,104.0,99.0,13.3,1505.3,327.2,-0.7,1.8,2470.029,13.33,0.029,264.1
2019-08-16T02:37:34,42.805,6.029,-0.017,-0.003,-0.021,102.0,102.0,98.0,13.4,1505.3,327.0,-0.7,1.9,2470.009,13.33,0.017,260.0
2019-08-16T02:40:35,42.805,6.029,-0.006,0.005,-0.014,102.0,103.0,101.0,13.4,1505.3,324.9,-0.7,1.9,2470.054,13.33,0.007,309.8
2019-08-16T02:43:36,42.805,6.029,-0.014,0.0,-0.018,102.0,103.0,99.0,13.3,1505.3,327.2,-0.7,1.8,2469.998,13.33,0.014,270.0
2019-08-16T02:46:37,42.805,6.029,0.0,-0.016,-0.033,102.0,103.0,99.0,13.4,1505.3,326.8,-0.7,1.8,2470.01,13.33,0.016,180.0
2019-08-16T02:49:38,42.805,6.029,-0.025,-0.001,-0.046,102.0,103.0,99.0,13.3,1505.3,327.3,-0.7,1.8,2469.997,13.33,0.025,267.7
2019-08-16T02:52:39,42.805,6.029,-0.019,-0.005,-0.021,103.0,104.0,98.0,13.3,1505.3,324.4,-0.7,1.8,2469.995,13.33,0.019,255.3
2019-08-16T02:55:40,42.805,6.029,0.011,-0.005,-0.012,102.0,105.0,98.0,13.3,1505.3,326.0,-0.7,1.8,2470.079,13.33,0.012,114.4
2019-08-16T02:58:41,42.805,6.029,0.001,-0.008,-0.027,101.0,102.0,99.0,13.3,1505.3,328.2,-0.7,1.8,2470.012,13.33,0.008,172.9
2019-08-16T03:01:42,42.805,6.029,0.005,-0.008,-0.018,102.0,103.0,102.0,13.4,1505.3,327.1,-0.7,1.8,2470.03,13.33,0.009,148.0
2019-08-16T03:04:43,42.805,6.029,0.015,0.017,-0.007,103.0,104.0,101.0,13.4,1505.3,327.6,-0.7,1.9,2470.011,13.33,0.022,41.4
2019-08-16T03:07:44,42.805,6.029,0.033,-0.001,0.025,101.0,105.0,100.0,13.4,1505.3,323.3,-0.7,1.8,2470.001,13.33,0.033,91.7
2019-08-16T03:10:45,42.805,6.029,-0.037,0.024,-0.07,103.0,105.0,100.0,13.3,1505.3,326.0,-0.7,1.8,2469.98,13.33,0.044,303.0
2019-08-16T03:13:46,42.805,6.029,-0.039,-0.006,-0.055,103.0,106.0,100.0,13.4,1505.3,327.3,-0.7,1.8,2470.045,13.33,0.039,261.3
2019-08-16T03:16:46,42.805,6.029,0.0,0.009,-0.037,102.0,105.0,98.0,13.3,1505.3,326.2,-0.7,1.8,2470.031,13.33,0.009,0.0
2019-08-16T03:19:48,42.805,6.029,-0.014,-0.003,-0.034,103.0,105.0,99.0,13.4,1505.3,324.4,-0.7,1.8,2470.014,13.33,0.014,257.9
2019-08-16T03:22:48,42.805,6.029,0.001,0.0,-0.037,101.0,105.0,98.0,13.4,1505.3,326.7,-0.7,1.8,2470.053,13.33,0.001,90.0
2019-08-16T03:25:50,42.805,6.029,-0.012,0.0,-0.046,102.0,104.0,98.0,13.3,1505.3,326.2,-0.7,1.8,2470.001,13.33,0.012,270.0
2019-08-16T03:28:51,42.805,6.029,-0.028,0.017,-0.006,101.0,105.0,100.0,13.4,1505.3,328.3,-0.7,1.8,2470.051,13.33,0.032,301.3
2019-08-16T03:31:52,42.805,6.029,-0.01,-0.015,-0.039,103.0,105.0,98.0,13.4,1505.3,323.2,-0.7,1.9,2470.042,13.33,0.018,213.7
2019-08-16T03:34:53,42.805,6.029,-0.016,-0.002,-0.033,103.0,103.0,99.0,13.4,1505.3,323.8,-0.7,1.8,2470.022,13.33,0.016,262.9
2019-08-16T03:37:53,42.805,6.029,-0.005,-0.007,-0.023,102.0,103.0,99.0,13.4,1505.3,328.0,-0.7,1.8,2470.071,13.33,0.008,215.5
2019-08-16T03:40:54,42.805,6.029,0.0,0.002,-0.042,102.0,104.0,100.0,13.4,1505.3,324.2,-0.7,1.8,2470.033,13.33,0.002,0.0
2019-08-16T03:43:56,42.805,6.029,-0.013,0.006,-0.004,101.0,104.0,100.0,13.4,1505.3,322.8,-0.7,1.8,2470.028,13.33,0.014,294.8
2019-08-16T03:46:57,42.805,6.029,-0.021,0.004,-0.009,103.0,104.0,98.0,13.4,1505.3,325.5,-0.7,1.8,2470.016,13.33,0.021,280.8
2019-08-16T03:49:58,42.805,6.029,-0.003,0.007,-0.009,104.0,104.0,99.0,13.3,1505.3,323.3,-0.7,1.8,2470.023,13.33,0.007,336.8
2019-08-16T03:52:58,42.805,6.029,-0.021,0.016,-0.032,103.0,105.0,99.0,13.4,1505.3,327.7,-0.7,1.8,2470.045,13.33,0.026,307.3
2019-08-16T03:55:59,42.805,6.029,-0.03,0.033,-0.033,104.0,105.0,99.0,13.4,1505.4,326.5,-0.7,1.8,2470.042,13.34,0.044,317.7
2019-08-16T03:59:00,42.805,6.029,-0.005,0.005,0.002,102.0,104.0,100.0,13.3,1505.4,327.0,-0.7,1.8,2470.005,13.34,0.007,315.0
2019-08-16T04:02:01,42.805,6.029,-0.019,0.009,-0.053,102.0,106.0,99.0,13.3,1505.4,325.8,-0.7,1.8,2470.033,13.34,0.021,295.3
2019-08-16T04:05:03,42.805,6.029,-0.014,-0.004,-0.026,102.0,103.0,100.0,13.4,1505.4,327.0,-0.7,1.9,2470.05,13.34,0.014,254.1
2019-08-16T04:08:04,42.805,6.029,-0.037,-0.004,-0.05,101.0,104.0,99.0,13.3,1505.4,326.3,-0.8,1.8,2470.031,13.34,0.037,263.8
2019-08-16T04:11:04,42.805,6.029,-0.016,0.008,-0.031,104.0,104.0,99.0,13.3,1505.4,325.5,-0.7,1.8,2470.066,13.34,0.017,296.6
2019-08-16T04:14:05,42.805,6.029,-0.029,0.008,0.0,103.0,104.0,99.0,13.4,1505.4,326.2,-0.7,1.9,2470.032,13.34,0.03,285.4
2019-08-16T04:17:06,42.805,6.029,-0.034,0.011,-0.061,101.0,104.0,99.0,13.3,1505.4,326.4,-0.7,1.8,2470.038,13.34,0.035,287.9
2019-08-16T04:20:07,42.805,6.029,-0.018,0.017,-0.015,100.0,105.0,100.0,13.4,1505.4,326.9,-0.7,1.8,2470.033,13.34,0.024,313.4
2019-08-16T04:23:08,42.805,6.029,0.024,0.015,0.022,101.0,105.0,98.0,13.3,1505.4,323.3,-0.7,1.8,2470.02,13.34,0.028,58.0
2019-08-16T04:26:09,42.805,6.029,-0.012,0.019,-0.025,102.0,104.0,99.0,13.4,1505.4,324.2,-0.7,1.9,2470.01,13.34,0.022,327.7
2019-08-16T04:29:10,42.805,6.029,-0.017,0.014,-0.062,103.0,103.0,98.0,13.4,1505.4,326.0,-0.7,1.8,2470.028,13.34,0.022,309.5
2019-08-16T04:32:11,42.805,6.029,0.003,0.011,-0.036,101.0,105.0,99.0,13.4,1505.4,325.0,-0.7,1.8,2470.047,13.34,0.011,15.3
2019-08-16T04:35:12,42.805,6.029,-0.037,0.003,-0.058,102.0,104.0,97.0,13.4,1505.4,324.4,-0.7,1.8,2470.044,13.34,0.037,274.6
2019-08-16T04:38:13,42.805,6.029,-0.034,0.003,-0.064,103.0,104.0,98.0,13.4,1505.4,322.8,-0.7,1.8,2470.062,13.34,0.034,275.0
2019-08-16T04:41:14,42.805,6.029,-0.023,0.022,-0.035,103.0,102.0,97.0,13.4,1505.4,326.0,-0.7,1.8,2470.03,13.34,0.031,313.7
2019-08-16T04:44:15,42.805,6.029,-0.008,-0.001,-0.051,101.0,105.0,99.0,13.4,1505.4,325.3,-0.7,1.8,2470.081,13.34,0.008,262.9
2019-08-16T04:47:16,42.805,6.029,-0.028,0.02,-0.035,103.0,103.0,97.0,13.4,1505.4,327.8,-0.7,1.8,2470.064,13.34,0.034,305.5
2019-08-16T04:50:17,42.805,6.029,-0.035,0.003,-0.035,102.0,104.0,98.0,13.4,1505.4,325.0,-0.7,1.8,2470.068,13.34,0.035,274.9
2019-08-16T04:53:18,42.805,6.029,-0.036,0.0,-0.039,101.0,106.0,98.0,13.4,1505.4,326.3,-0.7,1.9,2470.129,13.34,0.036,270.0
2019-08-16T04:56:19,42.805,6.029,-0.037,0.007,-0.053,102.0,106.0,99.0,13.3,1505.4,325.9,-0.7,1.8,2470.045,13.34,0.037,280.7
2019-08-16T04:59:20,42.805,6.029,-0.037,-0.005,-0.045,101.0,105.0,99.0,13.3,1505.4,324.4,-0.7,1.8,2470.1,13.34,0.037,262.3
2019-08-16T05:02:21,42.805,6.029,-0.013,-0.004,-0.054,102.0,104.0,98.0,13.4,1505.4,325.3,-0.7,1.8,2470.091,13.34,0.013,252.9
2019-08-16T05:05:22,42.805,6.029,-0.027,0.006,-0.037,102.0,104.0,99.0,13.3,1505.4,326.4,-0.7,1.8,2470.087,13.34,0.027,282.5
2019-08-16T05:08:23,42.805,6.029,-0.026,0.0,0.001,102.0,106.0,101.0,13.3,1505.4,324.9,-0.7,1.8,2470.072,13.34,0.026,270.0
2019-08-16T05:11:24,42.805,6.029,0.037,0.024,0.006,101.0,105.0,98.0,13.4,1505.4,322.9,-0.7,1.9,2470.122,13.34,0.044,57.0
2019-08-16T05:14:25,42.805,6.029,0.004,0.007,-0.031,102.0,104.0,100.0,13.4,1505.4,325.5,-0.7,1.8,2470.075,13.34,0.008,29.7
2019-08-16T05:17:26,42.805,6.029,-0.025,0.02,-0.038,103.0,106.0,100.0,13.4,1505.4,326.5,-0.7,1.9,2470.086,13.34,0.032,308.7
2019-08-16T05:20:27,42.805,6.029,0.008,0.016,-0.001,103.0,104.0,98.0,13.3,1505.4,325.2,-0.7,1.8,2470.099,13.34,0.017,26.6
2019-08-16T05:23:28,42.805,6.029,0.002,0.015,-0.033,101.0,104.0,98.0,13.4,1505.4,323.1,-0.7,1.8,2470.067,13.34,0.015,7.6
2019-08-16T05:26:29,42.805,6.029,-0.016,0.0,-0.024,101.0,105.0,98.0,13.3,1505.4,327.9,-0.7,1.8,2470.092,13.34,0.016,270.0
2019-08-16T05:29:30,42.805,6.029,-0.041,0.012,-0.057,102.0,104.0,99.0,13.3,1505.4,322.9,-0.7,1.8,2470.089,13.34,0.042,286.3
2019-08-16T05:32:31,42.805,6.029,-0.042,0.013,-0.063,101.0,105.0,99.0,13.3,1505.4,327.1,-0.7,1.8,2470.128,13.34,0.043,287.2
2019-08-16T05:35:32,42.805,6.029,-0.034,0.001,-0.04,101.0,105.0,98.0,13.3,1505.4,325.8,-0.7,1.9,2470.098,13.34,0.034,271.7
2019-08-16T05:38:33,42.805,6.029,-0.014,0.0,-0.064,102.0,104.0,98.0,13.4,1505.4,325.4,-0.7,1.8,2470.095,13.34,0.014,270.0
2019-08-16T05:41:34,42.805,6.029,-0.015,0.001,-0.038,101.0,104.0,98.0,13.3,1505.4,323.4,-0.7,1.8,2470.121,13.34,0.015,273.8
2019-08-16T05:44:35,42.805,6.029,-0.05,-0.007,-0.068,100.0,104.0,98.0,13.3,1505.4,324.7,-0.7,1.8,2470.119,13.34,0.05,262.0
2019-08-16T05:47:36,42.805,6.029,-0.016,0.013,-0.039,102.0,104.0,98.0,13.4,1505.4,324.7,-0.7,1.9,2470.104,13.34,0.02,309.1
2019-08-16T05:50:37,42.805,6.029,-0.038,0.018,-0.042,102.0,105.0,98.0,13.4,1505.4,324.7,-0.7,1.8,2470.115,13.34,0.042,295.3
2019-08-16T05:53:38,42.805,6.029,-0.033,-0.013,-0.042,102.0,103.0,99.0,13.4,1505.4,323.0,-0.7,1.9,2470.1,13.34,0.035,248.5
2019-08-16T05:56:39,42.805,6.029,-0.026,0.018,-0.031,101.0,106.0,99.0,13.3,1505.4,326.2,-0.7,1.8,2470.139,13.34,0.031,304.7
2019-08-16T05:59:40,42.805,6.029,-0.033,0.024,-0.02,102.0,106.0,98.0,13.4,1505.4,326.1,-0.7,1.8,2470.123,13.34,0.04,306.0
2019-08-16T06:02:41,42.805,6.029,-0.013,0.014,-0.004,100.0,107.0,99.0,13.3,1505.4,327.4,-0.7,1.8,2470.137,13.34,0.019,317.1
2019-08-16T06:05:42,42.805,6.029,-0.06,0.018,-0.047,102.0,106.0,97.0,13.3,1505.4,323.2,-0.7,1.8,2470.186,13.34,0.062,286.7
2019-08-16T06:08:43,42.805,6.029,-0.019,0.011,-0.013,103.0,104.0,99.0,13.4,1505.4,326.5,-0.7,1.9,2470.116,13.34,0.021,300.1
2019-08-16T06:11:44,42.805,6.029,-0.005,0.0,0.01,103.0,105.0,98.0,13.4,1505.3,327.4,-0.7,1.8,2470.118,13.33,0.005,270.0
2019-08-16T06:14:45,42.805,6.029,-0.029,0.004,-0.041,103.0,107.0,98.0,13.4,1505.4,323.2,-0.7,1.8,2470.183,13.34,0.029,277.8
2019-08-16T06:17:46,42.805,6.029,-0.018,0.008,-0.08,102.0,106.0,98.0,13.3,1505.3,325.3,-0.7,1.8,2470.127,13.33,0.019,294.0
2019-08-16T06:20:47,42.805,6.029,-0.042,0.013,-0.045,102.0,106.0,99.0,13.4,1505.4,327.9,-0.7,1.9,2470.138,13.34,0.043,287.2
2019-08-16T06:23:48,42.805,6.029,-0.02,0.005,-0.033,101.0,106.0,98.0,13.3,1505.4,324.6,-0.7,1.8,2470.111,13.34,0.02,284.0
2019-08-16T06:26:49,42.805,6.029,0.0,-0.001,0.015,102.0,106.0,99.0,13.4,1505.4,325.3,-0.7,1.8,2470.116,13.34,0.001,180.0
2019-08-16T06:29:50,42.805,6.029,0.002,0.0,0.008,102.0,106.0,99.0,13.4,1505.4,324.5,-0.7,1.9,2470.161,13.34,0.002,90.0
2019-08-16T06:32:51,42.805,6.029,-0.007,0.026,-0.025,102.0,106.0,98.0,13.4,1505.4,324.7,-0.7,1.8,2470.164,13.34,0.026,344.9
2019-08-16T06:35:52,42.805,6.029,-0.048,-0.005,-0.073,103.0,106.0,97.0,13.4,1505.4,324.4,-0.7,1.9,2470.153,13.34,0.048,264.1
2019-08-16T06:38:53,42.805,6.029,-0.039,0.022,-0.039,103.0,106.0,99.0,13.4,1505.4,324.8,-0.7,1.8,2470.136,13.34,0.044,299.4
2019-08-16T06:41:54,42.805,6.029,0.005,0.02,0.016,104.0,106.0,98.0,13.3,1505.4,326.8,-0.7,1.8,2470.128,13.34,0.02,14.0
2019-08-16T06:44:55,42.805,6.029,-0.009,0.021,-0.007,102.0,106.0,98.0,13.4,1505.4,325.7,-0.7,1.8,2470.178,13.34,0.022,336.8
2019-08-16T06:47:56,42.805,6.029,-0.041,0.016,-0.054,102.0,106.0,98.0,13.3,1505.4,326.9,-0.7,1.8,2470.185,13.34,0.044,291.3
2019-08-16T06:50:57,42.805,6.029,-0.04,0.031,-0.039,101.0,108.0,99.0,13.4,1505.4,324.1,-0.7,1.9,2470.116,13.34,0.05,307.8
2019-08-16T06:53:58,42.805,6.029,-0.026,0.003,-0.04,104.0,108.0,99.0,13.4,1505.4,324.7,-0.7,1.8,2470.15,13.34,0.026,276.6
2019-08-16T06:56:59,42.805,6.029,-0.004,0.028,0.007,103.0,105.0,98.0,13.4,1505.4,324.4,-0.7,1.8,2470.128,13.34,0.028,351.9
2019-08-16T07:00:00,42.805,6.029,-0.022,0.001,-0.009,101.0,104.0,97.0,13.4,1505.4,324.7,-0.7,1.8,2470.18,13.34,0.022,272.6
2019-08-16T07:03:01,42.805,6.029,0.007,0.032,-0.011,101.0,106.0,98.0,13.3,1505.4,326.1,-0.7,1.8,2470.173,13.34,0.032,12.3
2019-08-16T07:06:02,42.805,6.029,-0.008,0.018,0.007,103.0,106.0,99.0,13.4,1505.4,328.3,-0.7,1.8,2470.129,13.34,0.019,336.0
2019-08-16T07:09:03,42.805,6.029,-0.006,0.009,-0.03,102.0,106.0,98.0,13.3,1505.4,326.5,-0.7,1.8,2470.134,13.34,0.01,326.3
2019-08-16T07:12:04,42.805,6.029,-0.029,0.011,-0.052,102.0,107.0,97.0,13.4,1505.4,328.3,-0.7,1.8,2470.169,13.34,0.031,290.8
2019-08-16T07:15:05,42.805,6.029,-0.03,-0.001,-0.021,102.0,106.0,97.0,13.3,1505.4,326.6,-0.7,1.9,2470.151,13.34,0.03,268.1
2019-08-16T07:18:06,42.805,6.029,0.005,0.012,-0.014,101.0,106.0,99.0,13.3,1505.4,325.0,-0.7,1.8,2470.13,13.34,0.013,22.6
2019-08-16T07:21:07,42.805,6.029,-0.015,0.021,0.012,103.0,106.0,97.0,13.4,1505.4,325.7,-0.7,1.8,2470.121,13.34,0.025,324.5
2019-08-16T07:24:08,42.805,6.029,-0.023,0.013,-0.066,101.0,107.0,97.0,13.4,1505.4,323.6,-0.7,1.8,2470.192,13.34,0.026,299.5
2019-08-16T07:27:09,42.805,6.029,-0.009,0.005,-0.007,99.0,108.0,99.0,13.3,1505.4,326.1,-0.7,1.8,2470.152,13.34,0.01,299.1
2019-08-16T07:30:10,42.805,6.029,-0.014,0.01,0.013,103.0,106.0,98.0,13.4,1505.4,324.3,-0.7,1.8,2470.148,13.34,0.017,305.5
2019-08-16T07:33:11,42.805,6.029,-0.017,0.024,-0.014,101.0,106.0,100.0,13.3,1505.4,326.0,-0.7,1.8,2470.16,13.34,0.029,324.7
2019-08-16T07:36:12,42.805,6.029,-0.04,0.017,-0.028,102.0,106.0,99.0,13.4,1505.4,326.7,-0.7,1.8,2470.076,13.34,0.043,293.0
2019-08-16T07:39:13,42.805,6.029,-0.012,0.009,-0.046,102.0,107.0,100.0,13.4,1505.4,326.6,-0.7,1.8,2470.159,13.34,0.015,306.9
2019-08-16T07:42:14,42.805,6.029,0.013,0.024,0.0,103.0,106.0,98.0,13.3,1505.4,327.4,-0.7,1.8,2470.145,13.34,0.027,28.4
2019-08-16T07:45:15,42.805,6.029,-0.011,-0.006,-0.048,103.0,105.0,98.0,13.4,1505.4,324.0,-0.7,1.8,2470.155,13.34,0.012,241.4
2019-08-16T07:48:16,42.805,6.029,-0.042,0.031,-0.026,101.0,105.0,99.0,13.4,1505.4,326.5,-0.7,1.8,2470.13,13.34,0.052,306.4
2019-08-16T07:51:17,42.805,6.029,-0.05,0.032,-0.035,102.0,106.0,99.0,13.4,1505.4,326.5,-0.7,1.8,2470.138,13.34,0.059,302.6
2019-08-16T07:54:18,42.805,6.029,-0.024,0.0,-0.034,103.0,104.0,98.0,13.4,1505.4,324.7,-0.7,1.8,2470.133,13.34,0.024,270.0
2019-08-16T07:57:19,42.805,6.029,-0.049,0.0,-0.048,100.0,106.0,98.0,13.4,1505.4,325.7,-0.7,1.9,2470.188,13.34,0.049,270.0
2019-08-16T08:00:20,42.805,6.029,-0.019,0.011,0.005,102.0,106.0,99.0,13.4,1505.4,324.7,-0.7,1.9,2470.154,13.34,0.021,300.1
2019-08-16T08:03:21,42.805,6.029,-0.013,0.028,-0.006,102.0,109.0,98.0,13.4,1505.4,324.9,-0.7,1.8,2470.144,13.34,0.03,335.1
2019-08-16T08:06:22,42.805,6.029,-0.038,-0.005,-0.061,103.0,104.0,99.0,13.4,1505.4,324.4,-0.7,1.8,2470.13,13.34,0.038,262.5
2019-08-16T08:09:23,42.805,6.029,-0.021,0.0,-0.01,101.0,106.0,99.0,13.4,1505.4,325.7,-0.7,1.8,2470.137,13.34,0.021,270.0
2019-08-16T08:12:24,42.805,6.029,-0.031,0.014,-0.06,103.0,105.0,99.0,13.4,1505.4,326.3,-0.7,1.8,2470.206,13.34,0.034,294.3
2019-08-16T08:15:25,42.805,6.029,-0.027,0.007,-0.05,105.0,106.0,98.0,13.4,1505.4,326.1,-0.7,1.8,2470.141,13.34,0.027,284.5
2019-08-16T08:18:26,42.805,6.029,-0.036,-0.003,-0.009,102.0,107.0,99.0,13.4,1505.4,324.7,-0.7,1.8,2470.158,13.34,0.036,265.2
2019-08-16T08:21:27,42.805,6.029,-0.043,0.021,-0.064,103.0,107.0,98.0,13.4,1505.4,324.8,-0.7,1.8,2470.131,13.34,0.047,296.0
2019-08-16T08:24:28,42.805,6.029,-0.045,0.02,-0.047,102.0,106.0,100.0,13.4,1505.4,324.2,-0.7,1.8,2470.14,13.34,0.049,294.0
2019-08-16T08:27:29,42.805,6.029,-0.014,-0.007,-0.016,103.0,107.0,98.0,13.4,1505.3,324.2,-0.7,1.9,2470.068,13.33,0.015,243.4
2019-08-16T08:30:30,42.805,6.029,-0.011,0.018,-0.016,102.0,107.0,98.0,13.4,1505.3,324.7,-0.7,1.8,2470.136,13.33,0.021,328.6
2019-08-16T08:33:31,42.805,6.029,0.01,0.014,-0.007,102.0,107.0,98.0,13.4,1505.3,326.2,-0.7,1.8,2470.117,13.33,0.017,35.5
2019-08-16T08:36:32,42.805,6.029,0.014,0.027,-0.004,102.0,105.0,101.0,13.4,1505.3,326.4,-0.7,1.8,2470.121,13.33,0.03,27.4
2019-08-16T08:39:33,42.805,6.029,-0.025,0.014,-0.025,102.0,106.0,99.0,13.4,1505.3,324.0,-0.7,1.9,2470.116,13.33,0.028,299.3
2019-08-16T08:42:34,42.805,6.029,-0.012,0.02,-0.045,101.0,107.0,99.0,13.3,1505.3,327.9,-0.7,1.9,2470.133,13.33,0.023,329.0
2019-08-16T08:45:35,42.805,6.029,-0.024,0.007,-0.043,103.0,106.0,99.0,13.4,1505.4,324.4,-0.7,1.9,2470.102,13.34,0.025,286.3
2019-08-16T08:48:36,42.805,6.029,-0.002,0.011,-0.007,102.0,106.0,100.0,13.3,1505.3,327.4,-0.7,1.9,2470.108,13.33,0.011,349.7
2019-08-16T08:51:37,42.805,6.029,-0.012,0.03,-0.006,102.0,107.0,99.0,13.4,1505.4,324.7,-0.7,1.9,2470.12,13.34,0.032,338.2
2019-08-16T08:54:38,42.805,6.029,-0.01,0.013,-0.042,103.0,106.0,99.0,13.4,1505.3,324.8,-0.7,1.8,2470.142,13.33,0.016,322.4
2019-08-16T08:57:39,42.805,6.029,0.017,-0.002,0.0,101.0,106.0,99.0,13.3,1505.3,326.5,-0.7,1.9,2470.103,13.33,0.017,96.7
2019-08-16T09:00:40,42.805,6.029,-0.034,0.016,-0.047,101.0,107.0,99.0,13.4,1505.3,326.0,-0.7,1.8,2470.159,13.33,0.037,295.2
2019-08-16T09:03:41,42.805,6.029,-0.031,0.013,-0.022,101.0,106.0,98.0,13.3,1505.3,324.0,-0.7,1.8,2470.122,13.33,0.033,292.7
2019-08-16T09:06:42,42.805,6.029,0.01,0.007,-0.01,102.0,105.0,99.0,13.4,1505.3,323.3,-0.7,1.8,2470.107,13.33,0.012,55.0
2019-08-16T09:09:43,42.805,6.029,-0.04,0.014,-0.043,102.0,106.0,99.0,13.3,1505.3,325.3,-0.7,1.8,2470.158,13.33,0.042,289.3
2019-08-16T09:12:44,42.805,6.029,-0.024,0.012,-0.01,102.0,106.0,99.0,13.4,1505.3,322.8,-0.7,1.8,2470.128,13.33,0.026,296.6
2019-08-16T09:15:45,42.805,6.029,0.0,0.035,0.022,101.0,106.0,98.0,13.3,1505.3,326.3,-0.7,1.9,2470.101,13.33,0.035,0.0
2019-08-16T09:18:46,42.805,6.029,-0.057,0.011,-0.049,102.0,107.0,99.0,13.4,1505.3,327.6,-0.7,1.8,2470.168,13.33,0.058,280.9
2019-08-16T09:21:47,42.805,6.029,-0.021,0.012,-0.024,102.0,107.0,100.0,13.4,1505.4,324.1,-0.7,1.8,2470.128,13.34,0.024,299.7
2019-08-16T09:24:48,42.805,6.029,0.006,0.019,-0.017,102.0,108.0,98.0,13.4,1505.4,323.8,-0.7,1.8,2470.108,13.34,0.019,17.5
2019-08-16T09:27:49,42.805,6.029,-0.007,0.001,-0.011,100.0,108.0,99.0,13.3,1505.4,326.3,-0.7,1.8,2470.168,13.34,0.007,278.1
2019-08-16T09:30:50,42.805,6.029,0.03,0.013,0.015,103.0,106.0,99.0,13.4,1505.4,324.9,-0.7,1.8,2470.113,13.34,0.032,66.6